DateTimeUTC,F1_A11,F1_S11,BsB_S11,BsG_S11,BsR_S11,BbsB_S11,BbsG_S11,BbsR_S11,BaB_A11,BaG_A11,BaR_A11,Tu_S11,T_S11,Uu_S11,U_S11,P_S11,T1_A11
2021-07-22T17:00:00Z,00000200,20000000,,,,,,,-000.12,-000.60,-000.46,20.2,26.7,06.7,04.5,0667.8,31.2
2021-07-22T17:01:00Z,00000200,20000000,,,,,,,-000.30,-000.24,-000.21,20.2,26.7,06.5,04.4,0667.8,31.2
2021-07-22T17:02:00Z,00000200,20000000,,,,,,,0000.19,0000.14,0000.15,20.2,26.8,06.6,04.4,0667.8,31.2
2021-07-22T17:03:00Z,00000200,60000000,,,,,,,0000.65,0000.87,0000.59,20.2,26.8,06.6,04.4,0667.8,31.2
2021-07-22T17:04:00Z,00000200,40000000,0004.24,0002.00,0001.55,0000.54,0000.24,0000.28,0000.88,0000.77,0000.65,20.2,26.6,06.7,04.6,0668.7,31.2
2021-07-22T17:05:00Z,00000200,00000000,0003.60,0001.94,0001.14,0001.25,0000.52,0000.09,0000.00,0000.17,0000.29,20.3,26.6,06.8,04.7,0668.7,31.2
2021-07-22T17:06:00Z,00000200,00000000,0003.04,0002.39,0000.95,0000.17,0000.23,0000.12,0001.05,0000.91,0000.15,20.3,26.5,06.8,04.6,0668.7,31.2
2021-07-22T17:07:00Z,00000200,00000000,0002.54,0002.20,0001.51,0000.60,0000.01,0000.00,0000.60,0000.46,0000.33,20.3,26.5,06.8,04.6,0668.7,31.2
2021-07-22T17:08:00Z,00000200,00000000,0002.80,0002.13,0001.16,0000.79,0000.28,0000.21,0000.66,0000.77,0000.69,20.3,26.5,06.7,04.6,0668.7,31.2
2021-07-22T17:09:00Z,00000200,00000000,0003.59,0002.04,0000.89,0000.72,0000.12,0000.09,0001.10,0000.88,0000.80,20.3,26.5,06.9,04.7,0668.7,31.2
2021-07-22T17:10:00Z,00000200,00000000,0003.37,0001.97,0001.38,0000.49,0000.30,0000.45,0000.36,0000.26,0000.11,20.3,26.5,06.9,04.7,0668.7,31.2
2021-07-22T17:11:00Z,00000200,00000000,0002.81,0002.44,0001.20,0000.72,0000.16,0000.44,0000.35,0000.29,0000.74,20.3,26.5,06.8,04.7,0668.7,31.2
2021-07-22T17:12:00Z,00000200,00000000,0002.70,0001.96,0001.23,0000.40,0000.33,0000.35,0000.79,0000.81,0000.44,20.3,26.5,06.8,04.7,0668.7,31.2
2021-07-22T17:13:00Z,00000200,00000000,0002.99,0001.88,0000.84,0000.61,-000.07,-000.20,0000.33,0000.27,0000.11,20.3,26.5,06.8,04.7,0668.7,31.2
2021-07-22T17:14:00Z,00000200,00000000,0003.89,0002.17,0001.22,0000.37,0000.24,0000.14,0000.55,0000.45,0000.35,20.3,26.5,06.8,04.6,0668.7,31.2
2021-07-22T17:15:00Z,00000200,00000000,0002.94,0002.08,0000.93,0000.88,-000.06,0000.12,0000.70,0000.68,0000.61,20.3,26.5,06.7,04.6,0668.7,31.2
2021-07-22T17:16:00Z,00000200,00000000,0003.62,0002.51,0001.13,0000.67,0000.27,-000.11,0000.64,0000.53,0000.36,20.3,26.5,06.7,04.6,0668.7,31.2
2021-07-22T17:17:00Z,00000200,00000000,0003.35,0002.28,0001.27,0001.01,0000.29,0000.44,0000.86,0000.49,0000.50,20.3,26.5,06.9,04.7,0668.7,31.2
2021-07-22T17:18:00Z,00000200,00000000,0002.96,0002.23,0000.98,0000.58,0000.14,0000.19,0000.52,0000.96,0000.67,20.3,26.5,06.9,04.7,0668.7,31.2
2021-07-22T17:19:00Z,00000200,00000000,0002.92,0002.13,0001.18,0000.81,0000.11,-000.03,0000.14,0000.10,-000.06,20.3,26.5,07.1,04.9,0668.7,31.2
2021-07-22T17:20:00Z,00000200,00000000,0003.07,0002.18,0000.96,0000.06,-000.04,0000.06,0001.34,0001.17,0000.99,20.3,26.5,06.9,04.7,0668.7,31.2
2021-07-22T17:21:00Z,00000200,00000000,0002.92,0001.99,0001.38,0000.27,0000.46,0000.28,0000.51,0000.34,0000.40,20.3,26.5,07.2,04.9,0668.6,31.2
2021-07-22T17:22:00Z,00000200,00000000,0003.05,0001.93,0000.95,0000.73,0000.03,0000.37,0000.80,0000.69,0000.73,20.3,26.5,07.1,04.9,0668.7,31.2
2021-07-22T17:23:00Z,00000200,00000000,0003.38,0001.76,0000.88,0000.31,0000.39,0000.11,0000.46,0000.62,0000.27,20.3,26.5,07.3,05.0,0668.6,31.2
2021-07-22T17:24:00Z,00000200,00000000,0003.70,0002.08,0001.18,0000.54,0000.39,-000.15,0000.74,0000.61,0000.35,20.3,26.5,07.2,04.9,0668.6,31.2
2021-07-22T17:25:00Z,00000200,00000000,0002.69,0001.76,0000.95,0000.49,0000.15,-000.09,0000.63,0000.78,0000.50,20.3,26.5,07.2,04.9,0668.6,31.2
2021-07-22T17:26:00Z,00000200,00000000,0003.62,0002.38,0001.37,0000.46,0000.24,0000.50,0000.34,0000.23,0000.25,20.2,26.5,07.2,04.9,0668.6,31.2
2021-07-22T17:27:00Z,00000200,00000000,0002.70,0002.04,0001.11,0000.51,0000.09,0000.27,0001.06,0000.91,0000.76,20.2,26.5,07.1,04.9,0668.6,31.2
2021-07-22T17:28:00Z,00000200,00000000,0002.54,0001.72,0000.94,-000.20,0000.04,0000.09,0000.56,0000.24,0000.48,20.3,26.5,07.2,05.0,0668.6,31.2
2021-07-22T17:29:00Z,00000200,00000000,0003.41,0002.03,0001.04,0000.51,-000.08,0000.34,0000.61,0000.87,0000.84,20.2,26.5,07.5,05.1,0668.6,31.2
2021-07-22T17:30:00Z,00000200,00000000,0002.67,0002.03,0000.93,0000.38,0000.51,0000.37,0000.26,0000.53,0000.05,20.3,26.5,07.4,05.1,0668.5,31.2
2021-07-22T17:31:00Z,00000200,00000000,0003.13,0002.21,0001.16,0000.70,0000.39,0000.06,0000.90,0000.23,0000.65,20.2,26.5,07.4,05.1,0668.6,31.2
2021-07-22T17:32:00Z,00000200,00000000,0003.59,0001.85,0001.22,0000.35,0000.15,0000.51,0000.91,0000.99,0000.09,20.3,26.5,07.4,05.1,0668.6,31.2
2021-07-22T17:33:00Z,00000200,00000000,0002.99,0001.60,0000.84,0000.48,0000.11,0000.01,0000.32,0000.21,0000.56,20.3,26.5,07.5,05.2,0668.5,31.2
2021-07-22T17:34:00Z,00000200,00000000,0002.79,0001.85,0001.06,0000.53,0000.24,0000.13,0000.46,0000.42,0000.28,20.2,26.5,07.6,05.2,0668.6,31.2
2021-07-22T17:35:00Z,00000200,00000000,0002.98,0002.16,0001.11,0000.88,0000.35,0000.53,0000.67,0000.91,0000.54,20.2,26.5,07.6,05.2,0668.5,31.2
2021-07-22T17:36:00Z,00000200,00000000,0002.63,0001.77,0001.13,0000.37,-000.08,0000.02,0000.60,0000.67,0000.36,20.2,26.5,07.6,05.2,0668.6,31.2
2021-07-22T17:37:00Z,00000200,00000000,0002.19,0002.04,0001.28,0000.24,-000.11,0000.14,0001.14,0000.38,0000.82,20.2,26.5,07.7,05.3,0668.5,31.2
2021-07-22T17:38:00Z,00000200,00000000,0003.19,0001.87,0000.66,0000.95,0000.29,0000.04,-000.23,0000.59,0000.02,20.2,26.5,07.7,05.3,0668.5,31.2
2021-07-22T17:39:00Z,00000200,00000000,0003.19,0001.82,0001.36,0000.42,0000.20,0000.63,0000.66,0000.20,0000.31,20.2,26.5,07.6,05.2,0668.5,31.2
2021-07-22T17:40:00Z,00000200,00000000,0003.39,0001.97,0001.05,0000.52,0000.08,0000.33,0000.92,0000.82,0000.28,20.2,26.5,07.6,05.2,0668.6,31.2
2021-07-22T17:41:00Z,00000200,00000000,0003.25,0002.07,0000.80,0000.71,0000.14,0000.07,0000.44,0000.69,0000.93,20.2,26.5,07.8,05.3,0668.5,31.2
2021-07-22T17:42:00Z,00000200,00000000,0002.38,0001.83,0001.12,0000.40,-000.08,-000.10,0000.56,0000.40,0000.60,20.2,26.5,07.6,05.2,0668.5,31.2
2021-07-22T17:43:00Z,00000200,00000000,0002.10,0001.53,0001.30,0000.19,0000.19,-000.16,0000.71,0000.63,0000.17,20.2,26.5,07.7,05.3,0668.5,31.2
2021-07-22T17:44:00Z,00000200,00000000,0002.87,0001.93,0001.01,0000.57,0000.27,0000.20,0000.34,0000.40,0000.20,20.2,26.4,07.7,05.3,0668.5,31.2
2021-07-22T17:45:00Z,00000200,00000000,0002.26,0001.77,0000.83,0000.16,0000.14,0000.30,0001.21,0000.82,0001.10,20.2,26.4,07.9,05.4,0668.6,31.2
2021-07-22T17:46:00Z,00000200,00000000,0002.31,0002.01,0001.02,0000.79,0000.22,-000.01,-000.17,0000.16,-000.09,20.2,26.4,08.0,05.5,0668.5,31.2
2021-07-22T17:47:00Z,00000200,00000000,0003.47,0002.05,0001.24,0000.18,0000.36,0000.35,0000.72,0000.58,0000.36,20.2,26.4,07.9,05.4,0668.5,31.2
2021-07-22T17:48:00Z,00000200,00000000,0002.79,0002.12,0000.98,0000.62,0000.09,-000.10,0000.73,0000.69,0000.42,20.2,26.4,07.9,05.4,0668.5,31.2
2021-07-22T17:49:00Z,00000200,00000000,0002.81,0001.93,0000.93,0000.53,-000.01,-000.10,0000.76,0000.50,0000.34,20.2,26.4,08.0,05.4,0668.5,31.2
2021-07-22T17:50:00Z,00000200,00000000,0002.52,0001.99,0000.93,0000.19,0000.16,0000.22,0000.62,0000.95,0000.66,20.2,26.4,08.0,05.5,0668.5,31.2
2021-07-22T17:51:00Z,00000200,00000000,0002.68,0001.90,0000.93,-000.04,0000.24,0000.10,0000.55,0000.18,0000.72,20.2,26.4,08.2,05.6,0668.5,31.2
2021-07-22T17:52:00Z,00000200,00000000,0002.42,0001.93,0001.26,0000.41,0000.19,0000.57,0000.59,0000.35,0000.26,20.2,26.4,08.0,05.5,0668.5,31.2
2021-07-22T17:53:00Z,00000200,00000000,0002.60,0001.82,0001.11,0000.89,0000.03,0000.08,0000.25,0000.50,0000.24,20.2,26.4,08.0,05.5,0668.5,31.2
2021-07-22T17:54:00Z,00000200,00000000,0002.94,0002.04,0001.03,0000.25,0000.16,0000.00,0000.54,0000.33,0000.25,20.2,26.4,08.0,05.5,0668.5,31.2
2021-07-22T17:55:00Z,00000200,00000000,0002.65,0001.79,0000.66,0000.59,0000.00,-000.30,0000.65,0000.82,0000.28,20.2,26.4,08.0,05.5,0668.4,31.2
2021-07-22T17:56:00Z,00000200,00000000,0003.48,0002.12,0000.79,0000.70,0000.22,0000.14,0000.68,0000.22,0000.57,20.2,26.4,08.1,05.5,0668.5,31.2
2021-07-22T17:57:00Z,00000200,40000000,,,,,,,-000.09,0000.05,-000.08,20.2,26.5,08.3,05.7,0668.5,31.2
2021-07-22T17:58:00Z,00000200,60000000,,,,,,,-000.03,0000.23,0000.22,20.0,26.5,07.8,05.2,0667.5,31.2
2021-07-22T17:59:00Z,00000200,20000000,,,,,,,0000.05,-000.25,-000.05,20.0,26.6,07.7,05.2,0667.4,31.2
